When you browse on this site, cookies collect data to enhance your experience and personalize the content and advertising you see.
Visit our Privacy Policy to learn more. By continuing to use the site, you agree to this use of cookies and data.
  • En España
  • Lista de países
  • Para 7 días
  • Temperatura del agua
  • El tiempo en el mapa
  • Informadores
  • user-avatar
    Iniciar sesión

    Tiempo cada hora Algiers

    Hoy, 8 Diciembre, Domingo

    Tiempo Temperatura Precipitaciones Viento Presión Humedad
    00:00 +15°C° 0 mm 1 mps 753 mmHg 81%
    01:00 +14°C° 0.1 mm 2 mps 753 mmHg 82%
    02:00 +14°C° 0.1 mm 2 mps 753 mmHg 83%
    03:00 +14°C° 0.1 mm 2 mps 752 mmHg 84%
    04:00 +14°C° 0.2 mm 2 mps 753 mmHg 86%
    05:00 +14°C° 0.2 mm 2 mps 753 mmHg 87%
    06:00 +14°C° 0 mm 2 mps 753 mmHg 89%
    07:00 +15°C° 0.4 mm 2 mps 753 mmHg 87%
    08:00 +15°C° 0.4 mm 2 mps 753 mmHg 85%
    09:00 +16°C° 0.4 mm 2 mps 753 mmHg 84%
    10:00 +16°C° 0.5 mm 3 mps 753 mmHg 81%
    11:00 +17°C° 0.5 mm 3 mps 753 mmHg 78%
    12:00 +17°C° 0.5 mm 3 mps 753 mmHg 75%
    13:00 +17°C° 0.3 mm 3 mps 753 mmHg 75%
    14:00 +17°C° 0.3 mm 3 mps 753 mmHg 74%
    15:00 +16°C° 0.3 mm 3 mps 753 mmHg 74%
    16:00 +16°C° 0.1 mm 3 mps 753 mmHg 78%
    17:00 +14°C° 0.1 mm 4 mps 753 mmHg 81%
    18:00 +13°C° 0.1 mm 4 mps 754 mmHg 85%
    19:00 +13°C° 0.1 mm 4 mps 754 mmHg 85%
    20:00 +13°C° 0.1 mm 4 mps 754 mmHg 85%
    21:00 +13°C° 0.1 mm 4 mps 754 mmHg 85%
    22:00 +13°C° 0 mm 4 mps 754 mmHg 84%
    23:00 +13°C° 0 mm 4 mps 754 mmHg 82%

    Mañana, 9 Diciembre, Lunes

    Tiempo Temperatura Precipitaciones Viento Presión Humedad
    00:00 +12°C° 0 mm 4 mps 754 mmHg 80%
    01:00 +12°C° 0 mm 4 mps 754 mmHg 78%
    02:00 +12°C° 0 mm 4 mps 754 mmHg 76%
    03:00 +12°C° 0 mm 4 mps 753 mmHg 75%
    04:00 +12°C° 0 mm 4 mps 754 mmHg 75%
    05:00 +12°C° 0 mm 4 mps 754 mmHg 76%
    06:00 +12°C° 0 mm 4 mps 754 mmHg 76%
    07:00 +12°C° 0 mm 5 mps 754 mmHg 73%
    08:00 +13°C° 0 mm 6 mps 755 mmHg 71%
    09:00 +14°C° 0 mm 6 mps 755 mmHg 68%
    10:00 +15°C° 0 mm 7 mps 755 mmHg 68%
    11:00 +16°C° 0 mm 7 mps 755 mmHg 68%
    12:00 +16°C° 0 mm 8 mps 755 mmHg 68%
    13:00 +16°C° 0 mm 7 mps 755 mmHg 69%
    14:00 +16°C° 0 mm 7 mps 755 mmHg 69%
    15:00 +16°C° 0 mm 6 mps 754 mmHg 70%
    16:00 +15°C° 0 mm 6 mps 755 mmHg 74%
    17:00 +15°C° 0 mm 5 mps 755 mmHg 78%
    18:00 +14°C° 0 mm 5 mps 755 mmHg 82%
    19:00 +14°C° 0 mm 5 mps 755 mmHg 84%
    20:00 +13°C° 0 mm 5 mps 755 mmHg 85%
    21:00 +13°C° 0 mm 4 mps 756 mmHg 86%
    22:00 +13°C° 0.1 mm 4 mps 756 mmHg 85%
    23:00 +13°C° 0.1 mm 4 mps 755 mmHg 85%

    Pasado mañana, 10 Diciembre, Martes

    Tiempo Temperatura Precipitaciones Viento Presión Humedad
    00:00 +13°C° 0.1 mm 4 mps 755 mmHg 84%
    01:00 +13°C° 0.1 mm 4 mps 755 mmHg 84%
    02:00 +13°C° 0.1 mm 4 mps 755 mmHg 84%
    03:00 +13°C° 0.1 mm 4 mps 755 mmHg 85%
    04:00 +13°C° 0.1 mm 4 mps 755 mmHg 83%
    05:00 +13°C° 0.1 mm 4 mps 755 mmHg 81%
    06:00 +13°C° 0.1 mm 3 mps 755 mmHg 80%
    07:00 +13°C° 0 mm 3 mps 755 mmHg 76%
    08:00 +13°C° 0 mm 3 mps 756 mmHg 72%
    09:00 +14°C° 0 mm 3 mps 756 mmHg 68%
    10:00 +14°C° 0 mm 3 mps 755 mmHg 66%
    11:00 +14°C° 0 mm 3 mps 755 mmHg 63%
    12:00 +16°C° 0 mm 3 mps 755 mmHg 60%
    13:00 +15°C° 0 mm 4 mps 755 mmHg 61%
    14:00 +14°C° 0 mm 4 mps 754 mmHg 62%
    15:00 +14°C° 0 mm 4 mps 754 mmHg 62%
    16:00 +13°C° 0 mm 3 mps 754 mmHg 66%
    17:00 +14°C° 0 mm 2 mps 754 mmHg 69%
    18:00 +13°C° 0 mm 2 mps 754 mmHg 72%
    19:00 +13°C° 0 mm 1 mps 755 mmHg 72%
    20:00 +13°C° 0 mm 1 mps 755 mmHg 73%
    21:00 +12°C° 0 mm 1 mps 755 mmHg 73%
    22:00 +12°C° 0 mm 1 mps 755 mmHg 73%
    23:00 +12°C° 0 mm 1 mps 755 mmHg 74%

    11 Diciembre, Miércoles

    Tiempo Temperatura Precipitaciones Viento Presión Humedad
    00:00 +12°C° 0 mm 1 mps 755 mmHg 74%
    01:00 +12°C° 0 mm 1 mps 754 mmHg 74%
    02:00 +10°C° 0 mm 2 mps 754 mmHg 73%
    03:00 +10°C° 0 mm 2 mps 754 mmHg 72%
    04:00 +10°C° 0 mm 2 mps 754 mmHg 70%
    05:00 +10°C° 0 mm 2 mps 754 mmHg 67%
    06:00 +10°C° 0 mm 2 mps 753 mmHg 65%
    07:00 +12°C° 0 mm 2 mps 754 mmHg 60%
    08:00 +14°C° 0 mm 2 mps 754 mmHg 56%
    09:00 +15°C° 0 mm 2 mps 754 mmHg 51%
    10:00 +16°C° 0 mm 3 mps 753 mmHg 48%
    11:00 +17°C° 0 mm 3 mps 753 mmHg 46%
    12:00 +18°C° 0 mm 3 mps 752 mmHg 43%
    13:00 +18°C° 0 mm 3 mps 752 mmHg 45%
    14:00 +18°C° 0 mm 3 mps 752 mmHg 47%
    15:00 +18°C° 0 mm 3 mps 751 mmHg 48%
    16:00 +17°C° 0 mm 3 mps 751 mmHg 55%
    17:00 +15°C° 0 mm 4 mps 751 mmHg 61%
    18:00 +14°C° 0 mm 5 mps 751 mmHg 67%
    19:00 +14°C° 0 mm 5 mps 752 mmHg 68%
    20:00 +14°C° 0 mm 5 mps 752 mmHg 69%
    21:00 +14°C° 0 mm 5 mps 752 mmHg 69%
    22:00 +13°C° 0.1 mm 5 mps 753 mmHg 71%
    23:00 +13°C° 0.1 mm 4 mps 753 mmHg 72%

    12 Diciembre, Jueves

    Tiempo Temperatura Precipitaciones Viento Presión Humedad
    00:00 +13°C° 0.1 mm 4 mps 753 mmHg 74%
    01:00 +13°C° 0.2 mm 4 mps 753 mmHg 74%
    02:00 +13°C° 0.2 mm 4 mps 753 mmHg 74%
    03:00 +13°C° 0.2 mm 4 mps 753 mmHg 73%
    04:00 +13°C° 0 mm 4 mps 753 mmHg 71%
    05:00 +13°C° 0 mm 4 mps 753 mmHg 70%
    06:00 +13°C° 0 mm 4 mps 753 mmHg 68%
    07:00 +13°C° 0 mm 3 mps 754 mmHg 66%
    08:00 +13°C° 0 mm 3 mps 754 mmHg 64%
    09:00 +14°C° 0 mm 2 mps 755 mmHg 62%
    10:00 +15°C° 0 mm 2 mps 754 mmHg 59%
    11:00 +15°C° 0 mm 2 mps 754 mmHg 56%
    12:00 +16°C° 0 mm 1 mps 754 mmHg 53%
    13:00 +16°C° 0 mm 2 mps 753 mmHg 54%
    14:00 +16°C° 0 mm 2 mps 753 mmHg 54%
    15:00 +16°C° 0 mm 3 mps 753 mmHg 54%
    16:00 +14°C° 0 mm 4 mps 753 mmHg 60%
    17:00 +14°C° 0 mm 5 mps 753 mmHg 66%
    18:00 +13°C° 0 mm 5 mps 753 mmHg 72%
    19:00 +13°C° 0 mm 5 mps 753 mmHg 72%
    20:00 +12°C° 0 mm 5 mps 753 mmHg 72%
    21:00 +12°C° 0 mm 5 mps 753 mmHg 71%
    22:00 +12°C° 0 mm 5 mps 753 mmHg 70%
    23:00 +12°C° 0 mm 5 mps 753 mmHg 69%

    13 Diciembre, Viernes

    Tiempo Temperatura Precipitaciones Viento Presión Humedad
    00:00 +12°C° 0 mm 5 mps 753 mmHg 68%
    01:00 +12°C° 0 mm 5 mps 753 mmHg 71%
    02:00 +11°C° 0 mm 6 mps 752 mmHg 73%
    03:00 +11°C° 0 mm 6 mps 752 mmHg 75%
    04:00 +11°C° 0.1 mm 6 mps 752 mmHg 76%
    05:00 +11°C° 0.1 mm 7 mps 752 mmHg 77%
    06:00 +11°C° 0.1 mm 7 mps 752 mmHg 78%
    07:00 +12°C° 0 mm 7 mps 752 mmHg 73%
    08:00 +12°C° 0 mm 7 mps 752 mmHg 69%
    09:00 +14°C° 0 mm 7 mps 753 mmHg 64%
    10:00 +15°C° 0 mm 8 mps 752 mmHg 61%
    11:00 +15°C° 0 mm 8 mps 752 mmHg 58%
    12:00 +16°C° 0 mm 9 mps 752 mmHg 55%
    13:00 +16°C° 0 mm 9 mps 752 mmHg 56%
    14:00 +16°C° 0 mm 10 mps 752 mmHg 58%
    15:00 +16°C° 0 mm 11 mps 751 mmHg 60%
    16:00 +16°C° 0 mm 10 mps 752 mmHg 63%
    17:00 +15°C° 0 mm 9 mps 752 mmHg 67%
    18:00 +13°C° 0 mm 9 mps 752 mmHg 71%
    19:00 +13°C° 0 mm 8 mps 752 mmHg 70%
    20:00 +14°C° 0 mm 7 mps 753 mmHg 70%
    21:00 +14°C° 0 mm 6 mps 753 mmHg 70%
    22:00 +13°C° 0 mm 6 mps 753 mmHg 70%
    23:00 +13°C° 0 mm 6 mps 753 mmHg 71%
    Mostrar más